Hoquiam, WA
on Wednesday, December 12, 2012

Wednesday
Previous Day Next Day
Daily Summary
 ActualAverageRecord
Temperature
Mean Temperature °F 41°F  
Max Temperature 46°F 46°F 57°F (2002)
Min Temperature 35°F 37°F 18°F (1972)
Degree Days
Heating Degree Days 24 24  
Month to date heating degree days 275  
Cooling Degree Days 0 0  
Month to date cooling degree days 0  
Year to date cooling degree days 23  
Moisture
Dew Point 39°F   
Average Humidity 89    
Maximum Humidity 97    
Minimum Humidity 76    
Precipitation
Precipitation 0.15 in 0.31 in 2.62 in (1977)
Month to date precipitation 3.94  
Year to date precipitation 61.53  
Wind
Wind Speed 6 mph   
Max Wind Speed 16 mph   
Max Gust Speed mph   
Visibility 9 miles   
Events Rain   

Key: T is trace of precipitation, MM is missing value
Source: NWS Daily Summary
Time(PST)TemperatureDew PointHumidity Pressure Visibility Wind DirectionWind SpeedGust SpeedPrecipitationEvents Conditions
12:53 AM 43.0°F 39.9°F 89% 29.67 in 10.0 miles WSW 4.6 mph - N/A   Mostly Cloudy
1:44 AM 44.6°F 39.2°F 81% 29.66 in 8.0 miles SSW 16.1 mph - 0.01 in Rain Light Rain
1:53 AM 44.1°F 39.0°F 82% 29.68 in 4.0 miles SSW 8.1 mph - 0.03 in Rain Light Rain
2:29 AM 42.8°F 37.4°F 81% 29.67 in 10.0 miles South 4.6 mph - 0.00 in   Mostly Cloudy
2:46 AM 44.6°F 37.4°F 76% 29.68 in 10.0 miles SW 4.6 mph - 0.00 in   Mostly Cloudy
2:53 AM 44.1°F 39.0°F 82% 29.69 in 10.0 miles SW 8.1 mph - 0.00 in   Mostly Cloudy
3:29 AM 42.8°F 39.2°F 87% 29.68 in 10.0 miles Calm Calm - 0.01 in Rain Light Rain
3:53 AM 43.0°F 39.9°F 89% 29.70 in 10.0 miles Calm Calm - 0.01 in   Overcast
4:48 AM 42.8°F 39.2°F 87% 29.70 in 5.0 miles SSW 8.1 mph - 0.06 in Rain Light Rain
4:53 AM 43.0°F 39.0°F 86% 29.71 in 5.0 miles SSW 10.4 mph - 0.07 in Rain Light Rain
5:38 AM 42.8°F 39.2°F 87% 29.70 in 9.0 miles South 8.1 mph - 0.03 in Rain Light Rain
5:53 AM 42.1°F 39.9°F 92% 29.72 in 10.0 miles SSE 8.1 mph - 0.03 in Rain Light Rain
6:53 AM 42.1°F 39.9°F 92% 29.73 in 10.0 miles Calm Calm - 0.01 in   Mostly Cloudy
7:53 AM 39.9°F 37.9°F 93% 29.75 in 10.0 miles ENE 4.6 mph - N/A   Mostly Cloudy
8:53 AM 39.9°F 39.0°F 97% 29.78 in 10.0 miles NE 4.6 mph - N/A   Partly Cloudy
9:53 AM 42.1°F 39.9°F 92% 29.81 in 10.0 miles NE 5.8 mph - N/A   Overcast
10:53 AM 44.1°F 41.0°F 89% 29.83 in 10.0 miles NE 4.6 mph - N/A   Overcast
11:40 AM 44.6°F 42.8°F 93% 29.82 in 10.0 miles NE 6.9 mph - N/A   Overcast
11:53 AM 44.1°F 42.1°F 93% 29.84 in 10.0 miles NE 8.1 mph - N/A   Overcast
12:53 PM 45.0°F 42.1°F 90% 29.85 in 10.0 miles ENE 8.1 mph - N/A   Overcast
1:53 PM 45.0°F 42.1°F 90% 29.86 in 10.0 miles NE 8.1 mph - N/A   Overcast
2:28 PM 46.4°F 42.8°F 87% 29.86 in 10.0 miles NE 8.1 mph - N/A   Overcast
2:53 PM 46.9°F 42.1°F 83% 29.88 in 10.0 miles NNE 8.1 mph - N/A   Overcast
3:14 PM 44.6°F 41.0°F 87% 29.87 in 10.0 miles NE 10.4 mph - N/A   Overcast
3:53 PM 45.0°F 39.9°F 82% 29.90 in 10.0 miles NE 9.2 mph - N/A   Scattered Clouds
4:53 PM 42.1°F 39.0°F 89% 29.93 in 10.0 miles Calm Calm - N/A   Clear
5:53 PM 39.9°F 37.9°F 93% 29.94 in 10.0 miles NE 3.5 mph - N/A   Clear
6:53 PM 39.9°F 37.0°F 89% 29.96 in 10.0 miles NE 3.5 mph - N/A   Clear
7:53 PM 39.0°F 36.0°F 89% 29.98 in 10.0 miles NNE 3.5 mph - N/A   Clear
8:53 PM 36.0°F 35.1°F 97% 29.99 in 8.0 miles ENE 4.6 mph - N/A   Clear
9:53 PM 36.0°F 35.1°F 97% 30.01 in 3.0 miles Calm Calm - N/A   Clear
10:53 PM 35.1°F 34.0°F 96% 30.03 in 5.0 miles NE 6.9 mph - N/A   Clear
11:53 PM 35.1°F 34.0°F 96% 30.04 in 5.0 miles NE 5.8 mph - N/A   Scattered Clouds
Moon Phase
Dec. 12 Dec. 13 Dec. 20 Dec. 28 Jan. 04
Sunrise:07:52 AM (PST) Moon Rise:07:02 AM (PST)12/12
Sunset:04:26 PM (PST) Moon Set:04:10 PM (PST)12/12

Copyright © 2014 The Weather Underground, Inc.